Location: Assche-ter-Heiden
(50.9174°N, 4.1574°E)
Time: 09:46:04
(UTC+00:00)

STARLINK-40 - Pass Details

Date: 20 January 2020
Orbit: 528 x 531 km, 53.0° (Epoch: 19 February)

Event Time Altitude Azimuth Distance (km) Brightness Sun altitude
Exits shadow 06:24:04 - 231° (SW) 2,689 6.8 -11.0°
Rises 06:24:09 0° 231° (SW) 2,658 6.8 -11.0°
Reaches altitude 10° 06:26:23 10° 227° (SW) 1,772 5.9 -10.7°
Maximum altitude 06:30:18 52° 150° (SSE) 663 4.4 -10.1°
Drops below altitude 10° 06:34:13 10° 74° (ENE) 1,781 7.1 -9.5°
Sets 06:36:28 0° 70° (ENE) 2,674 8.0 -9.2°
